Tracking 26933 objects as of 5-Feb-2023
HD Live streaming from Space Station
objects crossing your sky now

CENTAURI-3(TYVAK-0210)

Track CENTAURI-3(TYVAK-0210) now!
10-day predictions


NORAD ID: 47966
Int'l Code: 2021-023B
Perigee: 533.4 km
Apogee: 537.1 km
Inclination: 45.0 °
Period: 95.2 minutes
Semi major axis: 6906 km
RCS: Unknown
Launch date: March 22, 2021
Source: Australia (AUS)
Launch site: Rocket Lab Launch Complex (RLLC)
Your satellite tracking list
Your tracking list is empty




NASA's NSSDC Master Catalog

Two Line Element Set (TLE):
1 47966U 21023B   23035.86362685  .00016538  00000-0  94261-3 0  9995
2 47966  45.0018  86.5286 0002707 139.6805 220.4273 15.12652751103161
Source of the keplerian elements: AFSPC